Regional Weather Roundup
Issued by NWS

Home | Current Version | Previous Version | Graphics & Text | Print | Product List | Glossary On
Versions: 1 2 3 4 5 6 7 8 9 10 11 12 13 14 15 16 17 18 19 20 21 22 23 24 25 26 27 28 29 30 31 32 33 34 35 36 37 38 39 40 41 42 43 44 45 46 47 48 49 50
516
ASUS45 KBOU 221607
RWRCO

WEATHER ROUNDUP FOR COLORADO
NATIONAL WEATHER SERVICE DENVER/BOULDER CO
1000 AM MDT MON MAY 22 2017

NOTE: "FAIR" INDICATES FEW OR NO CLOUDS BELOW 12000 FEET WITH NO
SIGNIFICANT WEATHER AND/OR OBSTRUCTIONS TO VISIBILITY.

COZ001>005-013-030-031-221700-
...NORTHWEST COLORADO...

CITY           SKY/WX    TMP DP  RH WIND       PRES   REMARKS
CRAIG          FAIR      49  40  71 CALM      30.29F
HAYDEN         FAIR      45  36  70 N3        30.30S
MEEKER         FAIR      51  41  68 VRB3      30.29F
RABBIT EARS PA FOG       32  32 100 W7        30.35F VSB 3/4 WCI  26
STEAMBOAT SPGS FAIR      45  37  73 CALM      30.29F
WALDEN           N/A     41  30  65 CALM      30.31F
$$

COZ006>008-011-221700-
...WEST CENTRAL VALLEYS...

CITY           SKY/WX    TMP DP  RH WIND       PRES   REMARKS
GRAND JUNCTION FAIR      60  41  49 W7        30.24S
MONTROSE       FAIR      54  41  61 VRB7      30.27S
EAGLE          MOSUNNY   54  37  54 CALM      30.29F
RIFLE          FAIR      56  39  53 CALM      30.25F
DELTA          FAIR      59  41  51 W5        30.25F
NUCLA          NOT AVBL
$$

COZ017>023-064>068-221700-
...SOUTHWEST COLORADO...

CITY           SKY/WX    TMP DP  RH WIND       PRES   REMARKS
DURANGO        FAIR      56  29  35 CALM      30.20F
CORTEZ         FAIR      61  38  42 NW15      30.20F
PAGOSA SPRINGS FAIR      55  24  31 SW5       30.23S
TELLURIDE      FAIR      46  30  54 CALM      30.33S
WOLF CREEK PAS FAIR      36  23  60 NE3       30.42S
$$

COZ009-010-012-014-032>034-037-058>063-221700-
...CENTRAL COLORADO...

CITY           SKY/WX    TMP DP  RH WIND       PRES   REMARKS
ASPEN          FAIR      49  29  46 VRB3      30.28F
BUENA VISTA    FAIR      51  28  41 NW14G21   30.26F
COPPER MTN     FAIR      28  23  80 NW13      30.38S WCI  18
BERTHOUD PASS  HAZE      21  10  63 N12G24    30.36S VSB 3/4 WCI   9
COTTONWOOD PAS FAIR      41  34  75 CALM      30.32F
GUNNISON       FAIR      48  35  60 CALM      30.28F
KREMMLING      FAIR      54  39  58 CALM      30.30F
LEADVILLE      FAIR      40  16  37 N13G18    30.31S
MONARCH PASS   FOG       30  30 100 W8        30.48R VSB 1/4 WCI  23
SALIDA         PTSUNNY   50  38  62 N5        30.33F
SUNLIGHT       FAIR      32  27  80 N3        30.42S
WILKERSON PASS FAIR      32  32 100 N7        30.37S WCI  26
$$

COZ069>075-221700-
...SAN LUIS VALLEY/SANGRE DE CRISTO MOUNTAINS...

CITY           SKY/WX    TMP DP  RH WIND       PRES   REMARKS
ALAMOSA        FAIR      54  31  41 NW10      30.22F
DEL NORTE      CLOUDY    51  29  42 E6        30.24F
LA VETA PASS   FOG       32  32 100 MISG      30.42S VSB<1/4
SAGUACHE       FAIR      52  32  46 N15       30.24F
$$

COZ035-036-038>040-221700-
...NORTHERN COLORADO FRONT RANGE...

CITY           SKY/WX    TMP DP  RH WIND       PRES   REMARKS
DENVER INTL AP FAIR      58  35  42 W6        30.18S
DMNS CITY PARK   N/A     60  31  33 E8        30.18F
AURORA         MOSUNNY   56  35  44 NW6       30.19F
FRONT RANGE AP MOSUNNY   57  39  51 W9        30.19F
ERIE MUNI ARPT FAIR      59  34  38 CALM      30.17S
BOULDER MUN AP FAIR      59  32  36 CALM      30.16F
CENTENNIAL     FAIR      55  35  47 NW5       30.20S
BROOMFIELD     MOSUNNY   57  36  44 CALM      30.19F
FORT COLLINS   FAIR      59  33  37 VRB3      30.16F
LONGMONT       FAIR      62  37  39 SW5       30.17F
$$

COZ041-046-047-076>085-087-088-221700-
...PIKES PEAK/PALMER DIVIDE AND SOUTHERN FOOTHILLS...

CITY           SKY/WX    TMP DP  RH WIND       PRES   REMARKS
COLO. SPRINGS  FAIR      57  36  45 N3        30.20F
A. F. ACADEMY  FAIR      54  36  50 N9G20     30.20F
SCHRIEVER AFB  FAIR      53  39  59 CALM      30.21F
CHEYENNE MTN   FAIR      51  40  64 E7        30.17F
ELLICOTT       FAIR     N/A N/A N/A SW8       30.20F
FALCON         FAIR      53  32  45 NW9G17    30.23S
FORT CARSON    FAIR      54  41  60 S7        30.20F
LIMON          FAIR      57  39  51 N12       30.17F
MONUMENT HILL  FAIR      46  34  61 NW10      30.24F
CANON CITY     NOT AVBL
WALSENBURG     CLOUDY    48  43  81 CALM      30.24F
TRINIDAD       CLOUDY    49  41  74 NW8       30.23F
$$

COZ042>045-048>051-090-091-221700-
...NORTHEAST COLORADO...

CITY           SKY/WX    TMP DP  RH WIND       PRES   REMARKS
GREELEY ARPT   FAIR      60  39  45 W9        30.16F
AKRON          FAIR      59  43  55 W13       30.13F
BURLINGTON     FAIR      61  46  57 NW10      30.12F
WRAY           FAIR      64  45  48 W16G22    30.10S
YUMA           NOT AVBL
STERLING       FAIR      63  39  42 W12G17    30.10F
HOLYOKE        NOT AVBL
FORT MORGAN    FAIR      59  42  53 SW10      30.15S
$$

COZ086-089-092>099-221700-
...SOUTHEAST COLORADO...

CITY           SKY/WX    TMP DP  RH WIND       PRES   REMARKS
PUEBLO         PTSUNNY   54  45  71 SW8       30.20S
LA JUNTA       CLOUDY    52  45  77 S7        30.16F
LAMAR          LGT RAIN  52  48  86 NW10      30.15S
SPRINGFIELD      N/A     49  47  93 N22       30.15R
$$




USA.gov is the U.S. government's official web portal to all federal, state and local government web resources and services.